Cocoa Beach, FL

4:25 AM EDT on August 22, 2017 (GMT -0400)
Cape Canaveral Air Station Skid Strip

Weather History for KXMR - September, 2013

Change the Weather History Date:

Monday, September 2, 2013

  Actual Average (KCOF) Record (KCOF)
Temperature  
Mean Temperature 81 °F -  
Max Temperature 92 °F 85 °F 91 °F (1997)
Min Temperature 71 °F 75 °F 75 °F (1999)
Cooling Degree Days 16    
Growing Degree Days 31 (Base 50)    
Moisture  
Dew Point 72 °F    
Average Humidity 80    
Maximum Humidity 92    
Minimum Humidity 55    
Precipitation  
Precipitation 0.22 in - - ()
Sea Level Pressure  
Sea Level Pressure 29.98 in    
Wind  
Wind Speed 3 mph (SSW)    
Max Wind Speed 20 mph    
Max Gust Speed 31 mph    
Visibility 9 miles    
Events Rain , Thunderstorm    
Averages and records for this station are not official NWS values.
T = Trace of Precipitation, MM = Missing Value Source: NWS Daily Summary

Daily Weather History Graph

Daily Weather History Graph

Search for Another Location

Airport or City:

Trip Planner

Search our weather history database for the weather conditions in past years. The results will help you decide how hot, cold, wet, or windy it might be!

Date:

Astronomy

Sep. 02, 2013 Rise Set
Actual Time 7:01 AM EDT 7:42 PM EDT
Civil Twilight 6:37 AM EDT 8:06 PM EDT
Nautical Twilight 6:09 AM EDT 8:34 PM EDT
Astronomical Twilight 5:40 AM EDT 9:02 PM EDT
Moon 4:25 AM EDT (9/2) 5:48 PM EDT (9/2)
Length of Visible Light 13h 28m
Length of Day
12h 41m
Waning Crescent, 8% of the Moon is Illuminated
Sep 2
Waning Crescent
Sep 5
New
Sep 12
First Quarter
Sep 19
Full
Sep 26
Last Quarter

Hourly Weather History & Observations

Time (EDT) Temp. Heat Index Dew Point Humidity Pressure Visibility Wind Dir Wind Speed Gust Speed Precip Events Conditions
12:28 AM 77.0 °F - 71.6 °F 83% 30.00 in 8.0 mi Calm Calm - N/A   Clear
12:33 AM 75.2 °F - 71.6 °F 89% 30.00 in 10.0 mi Calm Calm - N/A   Clear
12:43 AM 75.2 °F - 71.6 °F 89% 30.00 in 8.0 mi Calm Calm - N/A   Clear
12:53 AM 75.2 °F - 71.6 °F 89% 30.00 in 10.0 mi Calm Calm - N/A   Clear
12:58 AM 75.4 °F - 71.2 °F 87% 30.00 in 10.0 mi Calm Calm - N/A   Clear
1:58 AM 74.8 °F - 70.7 °F 87% 29.99 in 10.0 mi Calm Calm - N/A   Clear
2:58 AM 74.8 °F - 71.1 °F 88% 29.98 in 10.0 mi Calm Calm - N/A   Clear
3:58 AM 73.0 °F - 70.0 °F 90% 29.97 in 10.0 mi Calm Calm - N/A   Clear
4:58 AM 73.8 °F - 70.5 °F 90% 29.97 in 10.0 mi Calm Calm - N/A   Clear
5:58 AM 71.6 °F - 69.3 °F 92% 29.97 in 10.0 mi Calm Calm - N/A   Clear
6:58 AM 74.3 °F - 70.7 °F 88% 29.99 in 10.0 mi Calm Calm - N/A   Clear
7:58 AM 75.4 °F - 72.0 °F 89% 30.01 in 10.0 mi Calm Calm - N/A   Clear
8:58 AM 81.0 °F 85.8 °F 73.0 °F 77% 30.02 in 10.0 mi Calm Calm - N/A   Clear
9:58 AM 83.3 °F 89.0 °F 72.5 °F 70% 30.03 in 10.0 mi Calm Calm - N/A   Clear
10:58 AM 85.5 °F 91.8 °F 72.7 °F 65% 30.04 in 10.0 mi Calm Calm - N/A   Clear
11:58 AM 87.6 °F 95.2 °F 73.2 °F 62% 30.04 in 10.0 mi Variable 1.2 mph - N/A   Clear
12:58 PM 89.8 °F 98.6 °F 73.8 °F 59% 30.02 in 10.0 mi NNE 1.2 mph - N/A   Partly Cloudy
1:58 PM 91.6 °F 100.5 °F 73.6 °F 55% 30.00 in 10.0 mi SSE 4.6 mph - N/A   Partly Cloudy
2:58 PM 90.5 °F 102.1 °F 75.7 °F 62% 29.97 in 10.0 mi SE 8.1 mph - N/A   Clear
3:58 PM 89.2 °F 100.7 °F 76.3 °F 65% 29.96 in 10.0 mi SE 10.4 mph - N/A   Clear
4:58 PM 85.6 °F 95.0 °F 75.6 °F 72% 29.94 in 10.0 mi ESE 3.5 mph - N/A   Clear
5:58 PM 84.7 °F 94.4 °F 76.3 °F 76% 29.97 in 10.0 mi South 19.6 mph 31.1 mph N/A Thunderstorm Scattered Clouds
6:02 PM 84.2 °F 90.9 °F 73.4 °F 70% 29.96 in 10.0 mi SSW 17.3 mph 31.1 mph N/A Thunderstorm Mostly Cloudy
6:07 PM 82.4 °F 88.2 °F 73.4 °F 74% 29.95 in 10.0 mi SSW 17.3 mph 25.3 mph N/A Thunderstorm Thunderstorm
6:10 PM 80.6 °F 84.6 °F 71.6 °F 74% 29.95 in 8.0 mi SSW 16.1 mph 24.2 mph N/A Rain , Thunderstorm Light Thunderstorms and Rain
6:15 PM 78.8 °F - 71.6 °F 78% 29.96 in 3.0 mi SSW 10.4 mph 23.0 mph N/A Rain , Thunderstorm Heavy Thunderstorms and Rain
6:20 PM 77.0 °F - 69.8 °F 78% 29.95 in 3.0 mi SW 8.1 mph - N/A Rain , Thunderstorm Heavy Thunderstorms and Rain
6:22 PM 75.2 °F - 69.8 °F 83% 29.95 in 4.0 mi SW 6.9 mph - N/A Rain , Thunderstorm Heavy Rain
6:42 PM 75.2 °F - 71.6 °F 89% 29.94 in 10.0 mi SW 8.1 mph - N/A   Mostly Cloudy
6:58 PM 76.1 °F - 73.0 °F 90% 29.96 in 10.0 mi WSW 6.9 mph - 0.22 in   Partly Cloudy
7:09 PM 77.0 °F - 73.4 °F 89% 29.96 in 10.0 mi SW 5.8 mph - N/A   Light Drizzle
7:18 PM 77.0 °F - 73.4 °F 89% 29.95 in 10.0 mi WSW 1.2 mph - N/A   Clear
7:20 PM 77.0 °F - 73.4 °F 89% 29.95 in 10.0 mi Calm Calm - N/A   Light Drizzle
7:33 PM 78.8 °F - 73.4 °F 83% 29.95 in 10.0 mi Calm Calm - N/A   Clear
7:58 PM 78.6 °F - 74.5 °F 87% 29.95 in 10.0 mi WSW 6.9 mph - 0.00 in   Clear
8:58 PM 77.9 °F - 73.2 °F 85% 29.95 in 10.0 mi WSW 5.8 mph - N/A   Clear
9:58 PM 77.4 °F - 71.6 °F 82% 29.97 in 10.0 mi SSW 5.8 mph - N/A   Clear
10:58 PM 75.0 °F - 71.6 °F 89% 29.99 in 10.0 mi South 8.1 mph - N/A   Clear
11:58 PM 75.6 °F - 71.2 °F 86% 29.99 in 10.0 mi SW 8.1 mph - N/A   Clear